CW5020 Weather Reports


Display with metric or nautical units.
time (UTC)temp
F
wind
direction
speed
MPH
gust
MPH
rain 1hr
in
rain 24hr
in
rain mn
in
humidity
%
barometer
mb
20260504202008 81 310 3.0 10.0 0.00 0.00 0.00 37 998.7
20260504201507 81 174 2.0 10.0 0.00 0.00 0.00 36 998.7
20260504201010 80 245 2.0 8.0 0.00 0.00 0.00 38 999.1
20260504200507 80 170 3.0 10.0 0.00 0.00 0.00 37 999.1
20260504200012 79 217 3.0 10.0 0.00 0.00 0.00 38 999.2
20260504195505 79 242 2.0 9.0 0.00 0.00 0.00 36 999.3
20260504195009 79 198 2.0 9.0 0.00 0.00 0.00 40 999.3
20260504194508 78 244 3.0 9.0 0.00 0.00 0.00 41 999.3
20260504194005 77 227 3.0 9.0 0.00 0.00 0.00 37 999.5
20260504193507 78 195 3.0 9.0 0.00 0.00 0.00 37 999.5
20260504193009 78 255 3.0 11.0 0.00 0.00 0.00 37 999.6
20260504192507 77 184 4.0 11.0 0.00 0.00 0.00 35 999.6
20260504192007 78 203 4.0 13.0 0.00 0.00 0.00 35 999.8
20260504191506 78 270 3.0 13.0 0.00 0.00 0.00 36 999.7
20260504191010 78 203 3.0 9.0 0.00 0.00 0.00 33 999.7
20260504190506 78 252 4.0 18.0 0.00 0.00 0.00 34 999.8
20260504190010 78 188 3.0 18.0 0.00 0.00 0.00 33 999.9
20260504185505 78 267 3.0 11.0 0.00 0.00 0.00 33 1000.0
20260504185006 77 185 4.0 10.0 0.00 0.00 0.00 33 999.8
20260504184506 77 245 3.0 10.0 0.00 0.00 0.00 32 999.9
20260504184008 78 198 3.0 9.0 0.00 0.00 0.00 33 999.8
20260504183506 78 261 2.0 7.0 0.00 0.00 0.00 36 999.7
20260504183006 77 210 2.0 7.0 0.00 0.00 0.00 34 999.8
20260504182507 77 93 2.0 9.0 0.00 0.00 0.00 35 999.9
20260504182007 77 277 2.0 9.0 0.00 0.00 0.00 37 1000.0
20260504181506 76 263 2.0 7.0 0.00 0.00 0.00 35 1000.1
20260504181008 76 264 2.0 8.0 0.00 0.00 0.00 36 1000.3
20260504180507 76 207 2.0 8.0 0.00 0.00 0.00 36 1000.4
20260504180008 75 203 3.0 12.0 0.00 0.00 0.00 39 1000.4
20260504175505 75 253 3.0 9.0 0.00 0.00 0.00 37 1000.5
20260504174506 75 202 2.0 9.0 0.00 0.00 0.00 37 1000.6
20260504174007 75 212 3.0 9.0 0.00 0.00 0.00 37 1000.7
20260504173006 75 202 2.0 8.0 0.00 0.00 0.00 38 1000.8
20260504172506 75 246 2.0 8.0 0.00 0.00 0.00 38 1000.8
20260504171005 74 209 2.0 7.0 0.00 0.00 0.00 39 1001.1
20260504170506 74 229 2.0 8.0 0.00 0.00 0.00 41 1001.1
20260504151015 69 208 2.0 7.0 0.00 0.00 0.00 46 1002.5
20260504150505 68 232 1.0 7.0 0.00 0.00 0.00 47 1002.4
20260504141005 62 195 1.0 4.0 0.00 0.00 0.00 57 1003.0
20260504140506 62 210 1.0 4.0 0.00 0.00 0.00 59 1003.1
20260504130505 55 223 1.0 5.0 0.00 0.00 0.00 69 1003.7
20260504110505 48 216 0.0 1.0 0.00 0.00 0.00 81 1003.8
20260504100504 48 231 0.0 1.0 0.00 0.00 0.00 79 1003.8
20260504082006 50 231 0.0 0.0 0.00 0.00 0.00 75 1004.0
20260504081506 50 231 0.0 0.0 0.00 0.00 0.00 75 1003.8
20260504081006 50 231 0.0 0.0 0.00 0.00 0.00 75 1003.8
20260504080504 50 231 0.0 0.0 0.00 0.00 0.00 74 1003.8
20260504050504 56 221 1.0 6.0 0.00 0.00 0.00 66 1005.5
20260504045507 57 227 0.0 4.0 0.00 0.00 0.00 66 1005.6
20260504045006 57 259 1.0 5.0 0.00 0.00 0.00 65 1005.5
20260504044505 57 215 1.0 5.0 0.00 0.00 0.00 65 1005.5
20260504044005 57 214 1.0 8.0 0.00 0.00 0.00 65 1005.5
20260504043505 57 230 1.0 8.0 0.00 0.00 0.00 65 1005.5
20260504042006 57 241 1.0 4.0 0.00 0.00 0.00 64 1005.6
20260504041505 57 211 0.0 5.0 0.00 0.00 0.00 63 1005.5
20260504041005 58 211 0.0 6.0 0.00 0.00 0.00 63 1005.5
20260504040006 58 227 0.0 5.0 0.00 0.00 0.00 62 1005.4
20260504035505 58 225 1.0 5.0 0.00 0.00 0.00 61 1005.5
20260504034505 58 220 1.0 4.0 0.00 0.00 0.00 61 1005.6
20260504033504 58 228 0.0 3.0 0.00 0.00 0.00 61 1005.8
20260504033006 58 236 0.0 3.0 0.00 0.00 0.00 61 1005.8
20260504032505 58 236 0.0 3.0 0.00 0.00 0.00 61 1005.8
20260504032006 58 240 0.0 2.0 0.00 0.00 0.00 61 1005.9
20260504031505 58 240 0.0 2.0 0.00 0.00 0.00 61 1006.0
20260504031005 58 227 0.0 2.0 0.00 0.00 0.00 60 1006.0
20260504025507 59 230 0.0 3.0 0.00 0.00 0.00 60 1006.0
20260504025006 59 230 0.0 3.0 0.00 0.00 0.00 59 1006.1
20260504024505 59 230 0.0 2.0 0.00 0.00 0.00 59 1006.1
20260504024005 59 229 0.0 6.0 0.00 0.00 0.00 59 1006.0
20260504023505 60 227 0.0 6.0 0.00 0.00 0.00 58 1006.0
20260504023006 60 211 0.0 2.0 0.00 0.00 0.00 58 1006.0
20260504022506 60 211 0.0 2.0 0.00 0.00 0.00 57 1006.0
20260504022006 60 211 0.0 2.0 0.00 0.00 0.00 57 1006.0
20260504021505 60 211 0.0 3.0 0.00 0.00 0.00 57 1005.9
20260504021005 61 211 0.0 3.0 0.00 0.00 0.00 56 1005.9
20260504020505 61 228 0.0 2.0 0.00 0.00 0.00 56 1005.8
20260504015504 61 229 1.0 5.0 0.00 0.00 0.00 56 1005.7
20260504015005 61 229 1.0 5.0 0.00 0.00 0.00 55 1005.7
20260504014505 61 236 1.0 7.0 0.00 0.00 0.00 54 1005.5
20260504014006 62 229 1.0 7.0 0.00 0.00 0.00 55 1005.6
20260504013505 62 253 0.0 5.0 0.00 0.00 0.00 54 1005.5
20260504013005 62 229 1.0 4.0 0.00 0.00 0.00 54 1005.5
20260504012505 62 230 1.0 4.0 0.00 0.00 0.00 53 1005.5
20260504012004 62 263 1.0 5.0 0.00 0.00 0.00 53 1005.5
20260504011505 62 256 1.0 5.0 0.00 0.00 0.00 53 1005.5
20260504011005 63 225 1.0 4.0 0.00 0.00 0.00 52 1005.4
20260504010505 63 248 1.0 8.0 0.00 0.00 0.00 51 1005.4
20260504010007 63 237 2.0 8.0 0.00 0.00 0.00 51 1005.4
20260504005506 64 205 1.0 5.0 0.00 0.00 0.00 50 1005.4
20260504004505 64 198 0.0 6.0 0.00 0.00 0.00 49 1005.4
20260504004007 65 225 1.0 6.0 0.00 0.00 0.00 49 1005.5
20260504003504 65 213 1.0 5.0 0.00 0.00 0.00 48 1005.5
20260504003006 65 207 1.0 3.0 0.00 0.00 0.00 47 1005.6
20260504002007 66 232 1.0 5.0 0.00 0.00 0.00 46 1005.6
20260504001505 66 242 2.0 6.0 0.00 0.00 0.00 46 1005.5
20260504001008 66 211 2.0 7.0 0.00 0.00 0.00 45 1005.6
20260503235007 67 229 2.0 8.0 0.00 0.00 0.00 44 1005.5
20260503234506 67 270 2.0 8.0 0.00 0.00 0.00 44 1005.5
20260503234009 67 261 2.0 8.0 0.00 0.00 0.00 44 1005.5
20260503233506 67 277 2.0 8.0 0.00 0.00 0.00 44 1005.5
20260503233007 67 292 3.0 7.0 0.00 0.00 0.00 43 1005.5
20260503232506 67 218 3.0 8.0 0.00 0.00 0.00 43 1005.4
20260503232006 68 196 3.0 11.0 0.00 0.00 0.00 44 1005.5
20260503230508 68 214 3.0 11.0 0.00 0.00 0.00 42 1005.5
20260503230010 68 257 3.0 11.0 0.00 0.00 0.00 41 1005.6
20260503225509 68 288 3.0 8.0 0.00 0.00 0.00 42 1005.6
20260503225006 68 223 4.0 8.0 0.00 0.00 0.00 41 1005.7
20260503224505 69 210 3.0 12.0 0.00 0.00 0.00 40 1005.7
20260503224007 70 231 2.0 13.0 0.00 0.00 0.00 39 1005.7
20260503223504 70 200 2.0 10.0 0.00 0.00 0.00 41 1005.8
20260503223005 69 242 2.0 8.0 0.00 0.00 0.00 41 1005.8
20260503222007 69 252 1.0 12.0 0.00 0.00 0.00 40 1005.8
20260503221506 69 209 2.0 12.0 0.00 0.00 0.00 41 1005.9
20260503221011 69 225 2.0 10.0 0.00 0.00 0.00 43 1005.9
20260503220505 68 206 2.0 6.0 0.00 0.00 0.00 41 1006.0
20260503220007 67 240 2.0 8.0 0.00 0.00 0.00 41 1006.1
20260503215504 66 206 3.0 13.0 0.00 0.00 0.00 42 1006.0
20260503214506 68 186 3.0 9.0 0.00 0.00 0.00 41 1006.1
20260503214005 68 232 2.0 10.0 0.00 0.00 0.00 41 1006.2
20260503213506 68 219 2.0 18.0 0.00 0.00 0.00 40 1006.2
20260503213006 68 208 3.0 18.0 0.00 0.00 0.00 42 1006.4
20260503212505 67 205 2.0 14.0 0.00 0.00 0.00 41 1006.3
20260503211505 66 220 3.0 10.0 0.00 0.00 0.00 43 1006.7
20260503211004 66 287 3.0 11.0 0.00 0.00 0.00 41 1006.9
20260503210506 66 263 3.0 11.0 0.00 0.00 0.00 42 1007.0
20260503205504 67 215 4.0 15.0 0.00 0.00 0.00 39 1007.1
20260503205006 67 226 4.0 15.0 0.00 0.00 0.00 38 1007.2
20260503204505 67 242 4.0 12.0 0.00 0.00 0.00 40 1007.2
20260503204005 67 227 4.0 12.0 0.00 0.00 0.00 39 1007.3
20260503203007 68 210 4.0 14.0 0.00 0.00 0.00 38 1007.6
20260503202505 68 248 4.0 11.0 0.00 0.00 0.00 39 1007.5